Time,TemperatureF,DewpointF,PressureIn,WindDirection,WindDirectionDegrees,WindSpeedMPH,WindSpeedGustMPH,Humidity,HourlyPrecipIn,Conditions,Clouds,dailyrainin,SoftwareType,DateUTC
2013-10-26 00:13:00,46.0,27.0,30.00,SSW,193,0.0,0.0,48,0.00,,,0.00,,2013-10-26 05:13:00,
2013-10-26 00:23:00,46.0,28.0,29.99,South,179,0.0,0.0,49,0.00,,,0.00,,2013-10-26 05:23:00,
2013-10-26 00:43:00,46.0,29.0,29.98,South,182,0.0,0.0,51,0.00,,,0.00,,2013-10-26 05:43:00,
2013-10-26 00:52:00,45.0,28.0,29.98,South,187,0.0,0.0,52,0.00,,,0.00,,2013-10-26 05:52:00,
2013-10-26 01:12:00,45.0,29.0,29.97,South,185,0.0,0.0,53,0.00,,,0.00,,2013-10-26 06:12:00,
2013-10-26 01:22:00,44.0,28.0,29.97,SSW,192,0.0,0.0,53,0.00,,,0.00,,2013-10-26 06:22:00,
2013-10-26 01:42:00,44.0,29.0,29.96,SSW,195,0.0,0.0,55,0.00,,,0.00,,2013-10-26 06:42:00,
2013-10-26 01:52:00,44.0,29.0,29.95,SSW,198,0.0,0.0,55,0.00,,,0.00,,2013-10-26 06:52:00,
2013-10-26 02:11:00,44.0,29.0,29.93,SSW,193,0.0,0.0,55,0.00,,,0.00,,2013-10-26 07:11:00,
2013-10-26 02:22:00,45.0,29.0,29.92,South,185,0.0,0.0,54,0.00,,,0.00,,2013-10-26 07:22:00,
2013-10-26 02:42:00,44.0,29.0,29.90,South,173,0.0,0.0,55,0.00,,,0.00,,2013-10-26 07:42:00,
2013-10-26 02:52:00,44.0,29.0,29.89,South,180,0.0,0.0,55,0.00,,,0.00,,2013-10-26 07:52:00,
2013-10-26 03:11:00,44.0,29.0,29.88,South,179,0.0,0.0,55,0.00,,,0.00,,2013-10-26 08:11:00,
2013-10-26 03:22:00,44.0,29.0,29.88,SSW,200,0.0,0.0,55,0.00,,,0.00,,2013-10-26 08:22:00,
2013-10-26 03:42:00,45.0,29.0,29.87,SSW,196,0.0,0.0,54,0.00,,,0.00,,2013-10-26 08:42:00,
2013-10-26 03:52:00,45.0,29.0,29.87,SSE,154,0.0,0.0,54,0.00,,,0.00,,2013-10-26 08:52:00,
2013-10-26 04:11:00,45.0,29.0,29.86,South,187,0.0,0.0,54,0.00,,,0.00,,2013-10-26 09:11:00,
2013-10-26 04:22:00,45.0,29.0,29.86,South,182,0.0,0.0,54,0.00,,,0.00,,2013-10-26 09:22:00,
2013-10-26 04:43:00,45.0,30.0,29.85,SSE,163,0.0,0.0,55,0.00,,,0.00,,2013-10-26 09:43:00,
2013-10-26 04:53:00,45.0,30.0,29.85,SSE,165,0.0,0.0,56,0.00,,,0.00,,2013-10-26 09:53:00,
2013-10-26 05:13:00,45.0,30.0,29.85,South,178,0.0,0.0,56,0.00,,,0.00,,2013-10-26 10:13:00,
2013-10-26 05:23:00,45.0,31.0,29.85,SSE,164,0.0,0.0,57,0.00,,,0.00,,2013-10-26 10:23:00,
2013-10-26 05:53:00,45.0,31.0,29.84,South,186,0.0,0.0,58,0.00,,,0.00,,2013-10-26 10:53:00,
2013-10-26 06:11:00,45.0,31.0,29.84,SSW,213,0.0,0.0,57,0.00,,,0.00,,2013-10-26 11:11:00,
2013-10-26 06:21:00,45.0,31.0,29.84,South,179,0.0,0.0,58,0.00,,,0.00,,2013-10-26 11:21:00,
2013-10-26 06:42:00,45.0,31.0,29.83,South,184,0.0,0.0,57,0.00,,,0.00,,2013-10-26 11:42:00,
2013-10-26 06:52:00,45.0,31.0,29.83,South,171,0.0,0.0,58,0.00,,,0.00,,2013-10-26 11:52:00,
2013-10-26 07:12:00,45.0,32.0,29.83,NW,308,0.0,0.0,59,0.00,,,0.00,,2013-10-26 12:12:00,
2013-10-26 07:22:00,44.0,31.0,29.83,South,175,0.0,0.0,60,0.00,,,0.00,,2013-10-26 12:22:00,
2013-10-26 07:42:00,43.0,31.0,29.83,SW,215,0.0,0.0,62,0.00,,,0.00,,2013-10-26 12:42:00,
2013-10-26 07:52:00,43.0,31.0,29.83,South,171,0.0,0.0,63,0.00,,,0.00,,2013-10-26 12:52:00,
2013-10-26 08:11:00,43.0,32.0,29.83,SSW,201,0.0,0.0,65,0.00,,,0.00,,2013-10-26 13:11:00,
2013-10-26 08:21:00,43.0,32.0,29.83,South,175,0.0,0.0,66,0.00,,,0.00,,2013-10-26 13:21:00,
2013-10-26 08:42:00,43.0,33.0,29.84,WSW,240,0.0,0.0,67,0.00,,,0.00,,2013-10-26 13:42:00,
2013-10-26 08:52:00,43.0,33.0,29.84,ENE,62,0.0,0.0,67,0.00,,,0.00,,2013-10-26 13:52:00,
2013-10-26 09:11:00,43.0,33.0,29.84,South,180,0.0,0.0,68,0.00,,,0.00,,2013-10-26 14:11:00,
2013-10-26 09:21:00,44.0,34.0,29.85,West,273,0.0,0.0,68,0.00,,,0.00,,2013-10-26 14:21:00,
2013-10-26 09:42:00,45.0,36.0,29.84,WSW,257,0.0,0.0,70,0.00,,,0.00,,2013-10-26 14:42:00,
2013-10-26 09:52:00,46.0,36.0,29.85,NNE,32,0.0,0.0,68,0.00,,,0.00,,2013-10-26 14:52:00,
2013-10-26 10:12:00,47.0,37.0,29.85,NNW,340,0.0,0.0,67,0.00,,,0.00,,2013-10-26 15:12:00,
2013-10-26 10:23:00,47.0,37.0,29.85,North,0,0.0,0.0,68,0.00,,,0.00,,2013-10-26 15:23:00,
2013-10-26 10:44:00,50.0,38.0,29.85,NNW,342,0.0,0.0,64,0.00,,,0.00,,2013-10-26 15:44:00,
2013-10-26 10:55:00,51.0,39.0,29.85,North,5,0.0,0.0,64,0.00,,,0.00,,2013-10-26 15:55:00,
2013-10-26 12:12:00,56.0,37.0,29.88,NNW,327,0.0,0.0,49,0.00,,,0.00,,2013-10-26 17:12:00,
2013-10-26 12:23:00,55.0,37.0,29.88,NNE,14,0.0,0.0,50,0.00,,,0.00,,2013-10-26 17:23:00,
2013-10-26 12:43:00,56.0,37.0,29.89,North,355,0.0,0.0,48,0.00,,,0.00,,2013-10-26 17:43:00,
2013-10-26 12:52:00,54.0,36.0,29.89,NNW,344,0.0,0.0,51,0.00,,,0.00,,2013-10-26 17:52:00,
2013-10-26 13:12:00,53.0,37.0,29.90,North,355,0.0,0.0,54,0.00,,,0.00,,2013-10-26 18:12:00,
2013-10-26 13:22:00,52.0,36.0,29.90,NNE,23,0.0,0.0,55,0.00,,,0.00,,2013-10-26 18:22:00,
2013-10-26 13:42:00,53.0,36.0,29.91,North,11,0.0,0.0,53,0.00,,,0.00,,2013-10-26 18:42:00,
2013-10-26 13:52:00,52.0,36.0,29.91,NNW,344,0.0,0.0,55,0.00,,,0.00,,2013-10-26 18:52:00,
2013-10-26 14:12:00,54.0,35.0,29.91,North,351,0.0,0.0,49,0.00,,,0.00,,2013-10-26 19:12:00,
2013-10-26 14:22:00,55.0,35.0,29.92,North,9,0.0,0.0,46,0.00,,,0.00,,2013-10-26 19:22:00,
2013-10-26 14:42:00,54.0,31.0,29.92,NNW,340,0.0,0.0,42,0.00,,,0.00,,2013-10-26 19:42:00,
2013-10-26 14:52:00,54.0,33.0,29.92,ENE,73,0.0,0.0,45,0.00,,,0.00,,2013-10-26 19:52:00,
2013-10-26 15:12:00,52.0,32.0,29.94,NE,43,0.0,0.0,47,0.00,,,0.00,,2013-10-26 20:12:00,
2013-10-26 15:22:00,52.0,33.0,29.94,NNE,17,0.0,0.0,48,0.00,,,0.00,,2013-10-26 20:22:00,
2013-10-26 15:43:00,52.0,33.0,29.96,NNW,348,0.0,0.0,48,0.00,,,0.00,,2013-10-26 20:43:00,
2013-10-26 15:52:00,54.0,32.0,29.96,North,355,0.0,0.0,43,0.00,,,0.00,,2013-10-26 20:52:00,
2013-10-26 16:11:00,53.0,29.0,29.97,North,355,0.0,0.0,40,0.00,,,0.00,,2013-10-26 21:11:00,
2013-10-26 16:22:00,52.0,30.0,29.97,ESE,108,0.0,0.0,43,0.00,,,0.00,,2013-10-26 21:22:00,
2013-10-26 16:43:00,54.0,32.0,29.98,NNW,338,0.0,0.0,43,0.00,,,0.00,,2013-10-26 21:43:00,
2013-10-26 16:54:00,53.0,31.0,29.98,NNW,327,0.0,0.0,42,0.00,,,0.00,,2013-10-26 21:54:00,
2013-10-26 17:14:00,52.0,30.0,29.99,NNW,344,0.0,0.0,42,0.00,,,0.00,,2013-10-26 22:14:00,
2013-10-26 17:24:00,52.0,30.0,29.99,ESE,119,0.0,0.0,43,0.00,,,0.00,,2013-10-26 22:24:00,
2013-10-26 17:43:00,51.0,31.0,29.99,NW,325,0.0,0.0,46,0.00,,,0.00,,2013-10-26 22:43:00,
2013-10-26 17:53:00,50.0,30.0,30.00,NNW,338,0.0,0.0,46,0.00,,,0.00,,2013-10-26 22:53:00,
2013-10-26 18:12:00,49.0,30.0,30.00,NNW,333,0.0,0.0,48,0.00,,,0.00,,2013-10-26 23:12:00,
2013-10-26 18:22:00,49.0,31.0,30.01,NNW,333,0.0,0.0,49,0.00,,,0.00,,2013-10-26 23:22:00,
2013-10-26 18:42:00,47.0,31.0,30.01,NNW,333,0.0,0.0,54,0.00,,,0.00,,2013-10-26 23:42:00,
2013-10-26 18:52:00,46.0,31.0,30.01,NNW,333,0.0,0.0,55,0.00,,,0.00,,2013-10-26 23:52:00,
2013-10-26 19:12:00,45.0,31.0,30.03,NNW,333,0.0,0.0,57,0.00,,,0.00,,2013-10-27 00:12:00,
2013-10-26 19:21:00,45.0,31.0,30.03,NNW,333,0.0,0.0,58,0.00,,,0.00,,2013-10-27 00:21:00,
2013-10-26 19:42:00,43.0,30.0,30.03,NNW,333,0.0,0.0,60,0.00,,,0.00,,2013-10-27 00:42:00,
2013-10-26 19:52:00,43.0,31.0,30.04,NNW,333,0.0,0.0,62,0.00,,,0.00,,2013-10-27 00:52:00,
2013-10-26 20:11:00,41.0,30.0,30.05,NNW,333,0.0,0.0,64,0.00,,,0.00,,2013-10-27 01:11:00,
2013-10-26 20:22:00,40.0,30.0,30.05,NNW,333,0.0,0.0,66,0.00,,,0.00,,2013-10-27 01:22:00,
2013-10-26 20:42:00,39.0,30.0,30.05,NNW,333,0.0,0.0,69,0.00,,,0.00,,2013-10-27 01:42:00,
2013-10-26 20:52:00,39.0,30.0,30.05,NNW,333,0.0,0.0,70,0.00,,,0.00,,2013-10-27 01:52:00,
2013-10-26 21:12:00,38.0,30.0,30.06,NNW,333,0.0,0.0,72,0.00,,,0.00,,2013-10-27 02:12:00,
2013-10-26 21:21:00,38.0,30.0,30.06,NNW,333,0.0,0.0,74,0.00,,,0.00,,2013-10-27 02:21:00,
2013-10-26 21:42:00,37.0,30.0,30.06,NNW,333,0.0,0.0,75,0.00,,,0.00,,2013-10-27 02:42:00,
2013-10-26 21:52:00,36.0,29.0,30.06,NNW,333,0.0,0.0,76,0.00,,,0.00,,2013-10-27 02:52:00,
2013-10-26 22:11:00,35.0,29.0,30.06,NNW,333,0.0,0.0,78,0.00,,,0.00,,2013-10-27 03:11:00,
2013-10-26 22:22:00,35.0,29.0,30.06,NNW,333,0.0,0.0,79,0.00,,,0.00,,2013-10-27 03:22:00,
2013-10-26 22:44:00,34.0,29.0,30.06,NNW,333,0.0,0.0,81,0.00,,,0.00,,2013-10-27 03:44:00,
2013-10-26 22:54:00,34.0,29.0,30.06,NNW,333,0.0,0.0,81,0.00,,,0.00,,2013-10-27 03:54:00,
2013-10-26 23:02:00,-999.0,-99.9,30.06,NNW,333,0.0,0.0,-999,-99.99,,,-99.99,,2013-10-27 04:02:00,
2013-10-26 23:13:00,34.0,29.0,30.06,NNW,333,0.0,0.0,82,0.00,,,0.00,,2013-10-27 04:13:00,
2013-10-26 23:24:00,34.0,29.0,30.06,NNW,333,0.0,0.0,83,0.00,,,0.00,,2013-10-27 04:24:00,
2013-10-26 23:44:00,34.0,30.0,30.06,NNW,333,0.0,0.0,84,0.00,,,0.00,,2013-10-27 04:44:00,
2013-10-26 23:54:00,34.0,30.0,30.06,NNW,333,0.0,0.0,84,0.00,,,0.00,,2013-10-27 04:54:00,